| time (UTC) | temp C | wind direction | speed KPH | gust KPH | rain 1hr cm | rain 24hr cm | rain mn cm | humidity % | barometer mb |
| 20260506070204 | 17 | 0.0 | 0.0 | 0.00 | 0.00 | 0.00 | 61 | ||
| 20260506062204 | 13 | 0.0 | 0.0 | 0.00 | 0.00 | 0.00 | 73 | ||
| 20260506060203 | 12 | 0.0 | 0.0 | 0.00 | 0.00 | 0.00 | 79 | ||
| 20260506051210 | 6 | 0.0 | 0.0 | 0.00 | 0.00 | 0.00 | 88 | ||
| 20260506050202 | 5 | 0.0 | 0.0 | 0.00 | 0.00 | 0.00 | 89 | ||
| 20260506044202 | 5 | 0.0 | 0.0 | 0.00 | 0.00 | 0.00 | 88 | ||
| 20260506043210 | 5 | 273 | 0.0 | 0.0 | 0.00 | 0.00 | 0.00 | 88 | |
| 20260506042222 | 5 | 0.0 | 0.0 | 0.00 | 0.00 | 0.00 | 87 | ||
| 20260506041210 | 5 | 0.0 | 0.0 | 0.00 | 0.00 | 0.00 | 88 | ||
| 20260506040202 | 4 | 0.0 | 0.0 | 0.00 | 0.00 | 0.00 | 88 | ||
| 20260506035210 | 5 | 0.0 | 0.0 | 0.00 | 0.00 | 0.00 | 88 | ||
| 20260506034204 | 5 | 0.0 | 0.0 | 0.00 | 0.00 | 0.00 | 89 | ||
| 20260506033210 | 5 | 0.0 | 0.0 | 0.00 | 0.00 | 0.00 | 88 | ||
| 20260506032202 | 5 | 0.0 | 0.0 | 0.00 | 0.00 | 0.00 | 88 | ||
| 20260506031210 | 5 | 0.0 | 0.0 | 0.00 | 0.00 | 0.00 | 89 | ||
| 20260506030202 | 4 | 15 | 0.0 | 0.0 | 0.00 | 0.00 | 0.00 | 89 | |
| 20260506025212 | 4 | 0.0 | 0.0 | 0.00 | 0.00 | 0.00 | 90 | ||
| 20260506024202 | 4 | 0.0 | 0.0 | 0.00 | 0.00 | 0.00 | 89 | ||
| 20260506023210 | 4 | 0.0 | 0.0 | 0.00 | 0.00 | 0.00 | 88 | ||
| 20260506022203 | 4 | 0.0 | 0.0 | 0.00 | 0.00 | 0.00 | 88 | ||
| 20260506021251 | 4 | 0.0 | 0.0 | 0.00 | 0.00 | 0.00 | 86 | ||
| 20260506020202 | 5 | 0.0 | 0.0 | 0.00 | 0.00 | 0.00 | 87 | ||
| 20260506015231 | 5 | 0.0 | 0.0 | 0.00 | 0.00 | 0.00 | 88 | ||
| 20260506014224 | 5 | 0.0 | 0.0 | 0.00 | 0.00 | 0.00 | 84 | ||
| 20260506013210 | 5 | 0.0 | 0.0 | 0.00 | 0.00 | 0.00 | 86 | ||
| 20260506012203 | 5 | 0.0 | 0.0 | 0.00 | 0.00 | 0.00 | 87 | ||
| 20260506011232 | 5 | 0.0 | 0.0 | 0.00 | 0.00 | 0.00 | 85 | ||
| 20260506010207 | 5 | 0.0 | 0.0 | 0.00 | 0.00 | 0.00 | 85 | ||
| 20260506005209 | 5 | 0.0 | 0.0 | 0.00 | 0.00 | 0.00 | 86 | ||
| 20260506004202 | 5 | 0.0 | 0.0 | 0.00 | 0.00 | 0.00 | 85 | ||
| 20260506003210 | 5 | 0.0 | 0.0 | 0.00 | 0.00 | 0.00 | 83 | ||
| 20260506002202 | 5 | 0.0 | 0.0 | 0.00 | 0.00 | 0.00 | 85 | ||
| 20260506001212 | 5 | 0.0 | 0.0 | 0.00 | 0.00 | 0.00 | 86 | ||
| 20260506000204 | 6 | 0.0 | 0.0 | 0.00 | 0.00 | 0.00 | 82 | ||
| 20260505235209 | 6 | 0.0 | 0.0 | 0.00 | 0.00 | 0.00 | 83 | ||
| 20260505234204 | 6 | 0.0 | 0.0 | 0.00 | 0.00 | 0.00 | 82 | ||
| 20260505233211 | 6 | 0.0 | 0.0 | 0.00 | 0.00 | 0.00 | 82 | ||
| 20260505232201 | 6 | 0.0 | 0.0 | 0.00 | 0.00 | 0.00 | 82 | ||
| 20260505231210 | 6 | 0.0 | 0.0 | 0.00 | 0.00 | 0.00 | 82 | ||
| 20260505230307 | 6 | 0.0 | 0.0 | 0.00 | 0.00 | 0.00 | 82 | ||
| 20260505225209 | 7 | 0.0 | 0.0 | 0.00 | 0.00 | 0.00 | 80 | ||
| 20260505224202 | 7 | 0.0 | 0.0 | 0.00 | 0.00 | 0.00 | 80 | ||
| 20260505223210 | 7 | 0.0 | 0.0 | 0.00 | 0.00 | 0.00 | 79 | ||
| 20260505222201 | 7 | 0.0 | 0.0 | 0.00 | 0.00 | 0.00 | 79 | ||
| 20260505221210 | 7 | 0.0 | 0.0 | 0.00 | 0.00 | 0.00 | 80 | ||
| 20260505220202 | 7 | 0.0 | 0.0 | 0.00 | 0.00 | 0.00 | 80 | ||
| 20260505215231 | 7 | 84 | 0.0 | 0.0 | 0.00 | 0.00 | 0.00 | 79 | |
| 20260505214202 | 8 | 0.0 | 0.0 | 0.00 | 0.00 | 0.00 | 79 | ||
| 20260505213211 | 8 | 0.0 | 0.0 | 0.00 | 0.00 | 0.00 | 78 | ||
| 20260505212206 | 8 | 0.0 | 0.0 | 0.00 | 0.00 | 0.00 | 76 | ||
| 20260505211209 | 8 | 0.0 | 0.0 | 0.00 | 0.00 | 0.00 | 77 | ||
| 20260505210202 | 9 | 0.0 | 0.0 | 0.00 | 0.00 | 0.00 | 75 | ||
| 20260505205234 | 9 | 0.0 | 0.0 | 0.00 | 0.00 | 0.00 | 75 | ||
| 20260505204202 | 9 | 0.0 | 0.0 | 0.00 | 0.00 | 0.00 | 75 | ||
| 20260505203211 | 10 | 0.0 | 0.0 | 0.00 | 0.00 | 0.00 | 74 | ||
| 20260505202202 | 10 | 0.0 | 0.0 | 0.00 | 0.00 | 0.00 | 72 | ||
| 20260505201230 | 10 | 0.0 | 0.0 | 0.00 | 0.00 | 0.00 | 73 | ||
| 20260505200201 | 11 | 265 | 0.0 | 0.0 | 0.00 | 0.00 | 0.00 | 71 | |
| 20260505195231 | 11 | 0.0 | 0.0 | 0.00 | 0.00 | 0.00 | 70 | ||
| 20260505194202 | 11 | 0.0 | 0.0 | 0.00 | 0.00 | 0.00 | 71 | ||
| 20260505193211 | 11 | 0.0 | 0.0 | 0.00 | 0.00 | 0.00 | 70 | ||
| 20260505192201 | 12 | 0.0 | 0.0 | 0.00 | 0.00 | 0.00 | 67 | ||
| 20260505191230 | 12 | 83 | 0.0 | 0.0 | 0.00 | 0.00 | 0.00 | 68 | |
| 20260505190202 | 12 | 273 | 0.0 | 0.0 | 0.00 | 0.00 | 0.00 | 66 | |
| 20260505185209 | 13 | 0.0 | 0.0 | 0.00 | 0.00 | 0.00 | 64 | ||
| 20260505184203 | 13 | 269 | 0.0 | 0.0 | 0.00 | 0.00 | 0.00 | 64 | |
| 20260505183210 | 14 | 213 | 0.0 | 0.0 | 0.00 | 0.00 | 0.00 | 60 | |
| 20260505182202 | 15 | 0.0 | 0.0 | 0.00 | 0.00 | 0.00 | 59 | ||
| 20260505181209 | 15 | 87 | 0.0 | 0.0 | 0.00 | 0.00 | 0.00 | 56 | |
| 20260505180201 | 15 | 62 | 0.0 | 0.0 | 0.00 | 0.00 | 0.00 | 56 | |
| 20260505175209 | 16 | 257 | 0.0 | 0.0 | 0.00 | 0.00 | 0.00 | 54 | |
| 20260505174202 | 16 | 228 | 0.0 | 0.0 | 0.00 | 0.00 | 0.00 | 55 | |
| 20260505173210 | 16 | 272 | 0.0 | 0.0 | 0.00 | 0.00 | 0.00 | 56 | |
| 20260505172203 | 16 | 267 | 0.0 | 0.0 | 0.00 | 0.00 | 0.00 | 57 | |
| 20260505171210 | 17 | 250 | 0.0 | 0.0 | 0.00 | 0.00 | 0.00 | 55 | |
| 20260505170204 | 17 | 0.0 | 0.0 | 0.00 | 0.00 | 0.00 | 52 | ||
| 20260505165230 | 18 | 0.0 | 0.0 | 0.00 | 0.00 | 0.00 | 49 | ||
| 20260505164203 | 18 | 0.0 | 0.0 | 0.00 | 0.00 | 0.00 | 47 | ||
| 20260505163210 | 19 | 0.0 | 0.0 | 0.00 | 0.00 | 0.00 | 46 | ||
| 20260505162202 | 18 | 274 | 0.0 | 1.6 | 0.00 | 0.00 | 0.00 | 46 | |
| 20260505161209 | 18 | 270 | 0.0 | 1.6 | 0.00 | 0.00 | 0.00 | 47 | |
| 20260505160202 | 17 | 271 | 1.6 | 1.6 | 0.00 | 0.00 | 0.00 | 50 | |
| 20260505153209 | 18 | 252 | 0.0 | 0.0 | 0.00 | 0.00 | 0.00 | 46 | |
| 20260505152204 | 18 | 0.0 | 0.0 | 0.00 | 0.00 | 0.00 | 47 | ||
| 20260505151210 | 18 | 95 | 0.0 | 1.6 | 0.00 | 0.00 | 0.00 | 47 | |
| 20260505150202 | 19 | 86 | 0.0 | 0.0 | 0.00 | 0.00 | 0.00 | 46 | |
| 20260505140201 | 20 | 326 | 0.0 | 0.0 | 0.00 | 0.00 | 0.00 | 38 | |
| 20260505130202 | 21 | 265 | 1.6 | 3.2 | 0.00 | 0.00 | 0.00 | 36 | |
| 20260505124202 | 21 | 63 | 0.0 | 1.6 | 0.00 | 0.00 | 0.00 | 35 | |
| 20260505123210 | 21 | 70 | 0.0 | 1.6 | 0.00 | 0.00 | 0.00 | 35 | |
| 20260505122222 | 21 | 260 | 0.0 | 1.6 | 0.00 | 0.00 | 0.00 | 33 | |
| 20260505121210 | 22 | 216 | 1.6 | 1.6 | 0.00 | 0.00 | 0.00 | 33 | |
| 20260505120204 | 22 | 232 | 1.6 | 3.2 | 0.00 | 0.00 | 0.00 | 31 | |
| 20260505115210 | 23 | 41 | 0.0 | 1.6 | 0.00 | 0.00 | 0.00 | 31 | |
| 20260505114222 | 23 | 299 | 0.0 | 1.6 | 0.00 | 0.00 | 0.00 | 28 | |
| 20260505113252 | 23 | 74 | 0.0 | 0.0 | 0.00 | 0.00 | 0.00 | 30 | |
| 20260505112203 | 23 | 149 | 0.0 | 1.6 | 0.00 | 0.00 | 0.00 | 27 | |
| 20260505111211 | 24 | 266 | 0.0 | 1.6 | 0.00 | 0.00 | 0.00 | 27 | |
| 20260505110203 | 23 | 315 | 0.0 | 0.0 | 0.00 | 0.00 | 0.00 | 27 | |
| 20260505102203 | 23 | 244 | 0.0 | 1.6 | 0.00 | 0.00 | 0.00 | 28 | |
| 20260505101211 | 23 | 232 | 0.0 | 0.0 | 0.00 | 0.00 | 0.00 | 27 | |
| 20260505100224 | 25 | 70 | 0.0 | 0.0 | 0.00 | 0.00 | 0.00 | 27 | |
| 20260505095211 | 23 | 349 | 0.0 | 0.0 | 0.00 | 0.00 | 0.00 | 28 | |
| 20260505094203 | 23 | 79 | 0.0 | 0.0 | 0.00 | 0.00 | 0.00 | 26 | |
| 20260505093210 | 24 | 284 | 0.0 | 0.0 | 0.00 | 0.00 | 0.00 | 28 | |
| 20260505092223 | 23 | 275 | 0.0 | 0.0 | 0.00 | 0.00 | 0.00 | 27 | |
| 20260505091211 | 24 | 36 | 0.0 | 1.6 | 0.00 | 0.00 | 0.00 | 27 | |
| 20260505090205 | 25 | 106 | 0.0 | 1.6 | 0.00 | 0.00 | 0.00 | 28 | |
| 20260505085210 | 25 | 262 | 0.0 | 0.0 | 0.00 | 0.00 | 0.00 | 30 | |
| 20260505084206 | 23 | 132 | 0.0 | 0.0 | 0.00 | 0.00 | 0.00 | 28 | |
| 20260505083211 | 22 | 0.0 | 0.0 | 0.00 | 0.00 | 0.00 | 29 | ||
| 20260505082222 | 22 | 267 | 0.0 | 1.6 | 0.00 | 0.00 | 0.00 | 29 | |
| 20260505081210 | 23 | 303 | 0.0 | 0.0 | 0.00 | 0.00 | 0.00 | 31 | |
| 20260505080202 | 22 | 269 | 0.0 | 0.0 | 0.00 | 0.00 | 0.00 | 32 | |
| 20260505075211 | 22 | 270 | 0.0 | 0.0 | 0.00 | 0.00 | 0.00 | 36 | |
| 20260505074242 | 21 | 90 | 0.0 | 0.0 | 0.00 | 0.00 | 0.00 | 39 | |
| 20260505073209 | 21 | 0.0 | 0.0 | 0.00 | 0.00 | 0.00 | 41 | ||
| 20260505072202 | 21 | 70 | 0.0 | 0.0 | 0.00 | 0.00 | 0.00 | 39 | |
| 20260505071209 | 22 | 284 | 0.0 | 0.0 | 0.00 | 0.00 | 0.00 | 37 |